GFSGL_sfc_dewp_231.txt.gz
Dewpoint
60 61 64 65 65 64 63 62 61 60 59 61 62 63 63 63 62 60 58 58 58 57 57 57 58 58 59 59 59 60 59 58 56 56 62 59 58 59 56 53 54 52 50
57 60 60 61 62 62 62 62 61 59 58 60 62 62 62 60 59 58 56 56 56 55 55 54 54 59 54 56 58 58 58 58 57 55 59 57 57 57 52 53 52 52 50
55 55 57 58 59 60 61 62 61 57 56 56 58 59 59 57 57 55 55 55 55 54 51 51 51 52 53 53 54 56 57 59 57 56 59 58 56 52 52 51 51 50 49
54 53 52 53 54 58 60 59 60 59 57 56 56 56 57 55 55 55 53 53 52 50 50 50 50 53 51 54 54 52 55 55 56 56 59 58 55 52 51 49 48 49 48
54 55 54 52 52 53 55 59 60 59 58 56 55 55 54 53 52 52 51 51 50 49 50 50 51 52 55 56 53 50 51 53 54 55 58 56 53 50 49 49 48 48 48
55 55 55 55 55 54 53 53 57 59 59 58 56 56 55 54 49 50 51 50 49 49 49 50 50 54 56 55 55 53 52 51 51 54 55 56 53 52 51 48 47 46 45
54 53 54 55 55 55 55 53 52 54 57 58 58 58 57 57 53 51 50 51 51 51 50 50 50 51 52 51 51 53 53 53 53 54 54 57 56 54 52 49 48 47 48
51 53 54 53 53 54 54 54 53 53 53 55 57 58 57 59 53 51 50 52 52 52 52 52 51 51 51 51 51 51 52 52 52 54 55 58 58 56 53 52 50 50 48
48 48 47 49 50 51 51 52 53 53 53 52 54 54 55 57 51 49 49 53 53 53 52 52 52 51 49 46 51 51 51 51 52 51 51 49 48 50 53 53 50 49 47
49 49 50 51 48 47 47 48 49 48 47 49 49 51 51 52 48 47 47 52 53 53 53 52 49 51 47 46 51 51 50 50 50 52 55 54 51 52 51 54 52 50 49
45 45 46 46 46 46 46 47 46 45 46 47 46 46 47 47 47 46 45 50 53 53 53 52 53 47 46 45 46 52 50 51 50 52 53 57 56 55 55 56 53 52 51
42 43 44 44 43 44 43 43 44 44 43 43 43 43 44 46 46 45 44 44 48 52 53 54 52 46 45 44 45 46 45 46 49 50 53 55 56 56 57 57 55 55 53
41 41 42 42 42 42 43 42 43 43 43 42 42 42 42 43 45 44 44 43 44 47 51 51 48 46 45 45 44 44 43 48 48 52 52 53 56 58 59 58 58 57 55
38 39 39 39 38 38 39 40 40 40 40 41 41 41 41 43 43 44 45 46 44 46 47 49 50 48 47 48 47 45 47 48 50 53 53 54 57 57 58 58 57 55 52
38 38 38 38 39 39 40 40 41 41 41 41 41 41 41 41 42 42 43 46 47 47 47 47 49 47 48 48 48 48 48 49 50 52 52 54 57 57 58 59 57 55 52
39 39 39 40 40 40 40 39 39 40 40 39 39 40 41 40 40 39 39 40 40 41 45 47 48 48 49 50 49 49 49 50 51 53 54 54 55 56 57 58 56 55 53
39 38 39 40 40 39 39 39 39 40 39 39 39 39 39 39 39 39 39 39 38 38 40 42 47 48 48 49 49 49 50 50 51 52 53 53 55 56 54 56 55 54 53
39 39 40 39 40 40 40 39 40 39 39 39 39 38 38 38 38 38 38 37 41 40 41 43 44 47 49 49 49 49 49 50 51 53 53 53 55 55 55 55 54 53 51
37 38 38 39 40 40 40 40 40 40 40 39 40 40 39 37 37 37 37 39 39 40 40 42 43 47 48 50 50 50 50 50 51 52 53 53 53 54 54 54 53 46 47
36 37 36 36 37 37 38 39 39 39 39 40 40 41 41 39 40 39 39 39 39 40 40 40 42 44 45 47 49 52 52 50 51 52 53 53 53 53 53 53 53 50 49
35 35 34 35 35 35 36 36 37 37 38 38 39 39 38 42 41 41 41 41 40 40 40 40 40 42 43 45 47 51 53 52 52 53 54 54 54 53 53 52 51 50 49
34 34 34 34 35 35 35 36 36 37 37 37 38 40 35 40 42 42 43 43 43 41 41 41 41 41 42 43 45 49 52 53 53 53 54 54 53 52 52 50 49 49 48
33 33 34 34 35 35 36 36 37 37 37 38 39 39 41 41 41 42 43 44 45 44 44 44 43 42 42 43 45 47 50 52 53 53 53 53 52 52 51 49 48 48 46
34 35 34 36 38 37 37 37 38 37 38 39 39 40 41 41 42 43 43 44 45 46 46 45 45 45 44 45 46 46 50 51 53 54 53 52 52 48 50 48 48 47 46
35 36 37 39 41 43 40 39 39 39 40 40 41 42 42 43 43 44 45 45 46 46 47 47 46 46 46 46 46 48 46 42 51 48 53 52 51 49 48 47 48 47 45
35 35 36 37 38 39 41 42 42 43 43 44 44 44 44 44 45 45 46 47 46 47 48 48 47 46 46 46 47 44 39 41 45 44 52 51 49 49 48 46 47 46 44

GFSGL_sfc_dewp_234.txt.gz
Dewpoint
55 60 63 65 65 62 61 62 62 63 63 63 64 65 66 66 66 66 65 63 62 61 62 62 61 62 62 63 63 63 63 62 61 60 62 59 59 58 56 55 54 52 51
54 55 56 59 62 64 64 63 63 62 62 62 63 63 64 65 65 65 63 62 60 59 58 59 59 60 60 60 62 62 62 62 62 59 60 59 58 54 54 52 52 52 51
55 55 55 55 56 59 62 62 62 63 62 61 62 62 63 64 64 64 61 60 59 57 57 57 56 57 57 59 59 61 62 62 62 61 59 59 55 53 52 52 51 50 51
55 54 54 55 55 56 56 59 61 61 60 60 61 62 62 62 62 61 59 59 57 57 55 54 54 55 56 59 58 57 59 59 60 60 60 58 55 52 52 49 48 49 49
55 55 55 56 56 56 55 56 57 60 60 59 59 60 61 60 59 59 57 56 57 55 54 53 53 55 55 57 55 56 57 58 58 59 59 58 53 51 49 50 48 48 48
53 53 55 56 56 57 57 56 56 55 58 60 59 58 58 59 54 55 57 57 55 54 53 53 55 55 54 54 52 52 56 57 57 57 58 57 56 53 51 49 48 47 45
51 52 54 55 54 55 57 57 56 55 55 56 58 59 59 59 53 52 53 55 54 53 53 54 53 51 54 57 54 52 52 51 54 59 57 57 58 56 53 50 49 48 48
50 50 51 53 53 54 54 55 55 56 55 55 55 57 59 59 51 50 52 57 56 55 54 54 55 55 55 55 54 54 55 56 57 57 58 58 59 59 54 53 51 49 47
47 49 49 48 49 51 51 52 54 55 55 55 55 55 56 58 50 48 52 58 58 56 55 55 55 55 50 47 55 54 54 55 52 50 51 50 48 49 53 53 50 48 46
42 45 49 50 50 49 48 50 51 51 52 53 54 54 53 55 50 48 51 56 56 55 56 55 49 53 48 45 55 55 55 55 55 54 56 55 52 52 50 54 52 50 48
39 43 45 47 50 50 51 50 49 48 47 49 50 50 50 50 50 46 46 53 54 55 54 54 54 46 45 44 47 56 54 56 53 56 57 58 57 56 54 55 53 52 50
39 40 40 42 44 44 46 45 46 47 47 45 45 46 46 48 45 44 42 45 48 52 53 54 55 46 45 44 45 47 45 50 57 56 55 56 56 57 55 57 55 55 54
39 39 41 42 42 43 43 44 44 43 43 43 43 43 43 44 45 43 42 42 42 47 49 50 49 46 45 46 44 44 44 52 55 54 55 56 56 58 58 57 57 57 56
38 39 39 39 40 40 40 40 39 39 39 40 40 40 41 43 44 45 45 46 44 45 46 49 48 48 47 50 50 48 51 53 53 54 55 56 58 59 59 58 57 55 53
39 39 39 39 39 39 39 39 39 40 39 39 40 40 40 41 42 43 43 45 46 45 47 48 49 50 51 52 53 53 51 52 52 55 56 56 57 57 57 58 57 55 51
38 38 39 40 40 40 40 40 40 39 39 39 39 40 42 40 39 39 40 40 40 41 46 47 48 49 49 49 51 51 52 51 52 53 55 55 56 56 57 57 57 55 53
38 38 38 39 39 38 39 39 39 40 39 39 38 38 39 40 39 38 38 38 38 39 44 46 47 48 48 49 50 51 51 52 52 52 53 55 55 56 54 56 56 55 53
37 37 38 37 38 39 39 39 39 39 39 39 39 38 38 38 38 38 38 38 42 40 44 44 44 46 48 48 49 51 52 53 52 52 53 54 54 54 55 54 55 55 53
36 36 37 38 38 38 39 39 40 40 40 39 40 39 39 38 37 37 38 41 41 41 41 42 43 44 46 48 49 50 51 51 52 52 52 53 53 54 54 55 54 47 48
35 36 35 35 35 36 36 37 37 37 39 39 39 39 40 39 40 39 39 39 39 40 40 41 41 42 44 47 49 50 50 50 51 51 52 52 53 54 54 54 54 53 51
34 34 33 34 34 35 35 35 36 37 37 38 38 39 37 41 41 41 40 39 40 40 40 41 40 41 42 44 47 48 48 51 49 50 51 51 53 53 54 54 54 53 52
33 33 33 33 34 34 35 35 35 36 36 36 37 38 35 39 41 41 42 42 41 41 41 41 41 41 41 42 44 47 47 47 51 50 51 51 52 54 54 53 53 52 51
32 32 33 33 34 34 34 35 35 35 36 36 37 38 39 39 40 41 42 43 43 43 43 42 41 41 42 43 44 44 46 47 51 53 52 52 52 53 54 53 52 51 50
33 34 34 34 36 35 36 36 36 35 36 37 37 38 39 40 40 41 41 42 43 44 44 43 43 43 43 44 44 44 45 48 49 55 54 54 53 51 53 51 51 50 49
35 34 35 36 37 37 38 40 38 38 38 38 38 39 40 40 41 42 43 43 44 44 45 46 45 44 44 44 43 44 42 39 49 48 55 54 53 53 52 51 50 49 48
34 33 33 34 35 35 36 36 38 39 41 41 41 41 41 42 42 43 43 44 44 45 45 46 46 46 45 45 45 41 37 37 44 42 53 54 52 52 50 50 49 48 46

GFSGL_sfc_dewp_237.txt.gz
Dewpoint
57 61 64 66 67 67 66 65 65 67 67 66 66 66 65 66 68 69 69 68 68 67 66 66 66 67 63 63 64 64 63 63 58 62 63 62 61 58 57 57 54 52 51
55 57 59 61 64 65 66 67 66 65 66 65 65 65 64 64 68 68 67 66 67 66 65 64 62 61 65 66 62 65 64 65 62 63 62 60 57 56 55 53 52 51 50
56 55 57 58 59 60 62 64 66 66 66 65 64 64 64 65 66 68 67 66 66 65 63 62 60 62 63 60 62 62 62 63 63 61 60 60 55 55 53 52 52 51 50
53 55 57 58 58 59 59 59 59 63 64 63 62 63 63 63 65 66 67 67 66 64 62 60 59 60 59 61 60 62 59 55 57 55 59 59 56 54 53 51 49 50 50
50 51 54 55 57 58 59 59 59 59 58 60 61 61 62 63 64 65 65 64 64 63 61 58 57 57 57 59 54 57 59 55 53 52 52 57 56 53 53 51 50 49 50
50 50 51 51 52 54 56 57 58 58 58 58 57 58 60 62 56 55 60 61 60 62 59 58 55 56 55 56 54 55 58 59 57 52 52 51 57 57 53 51 50 48 46
47 47 48 50 51 53 55 55 56 58 59 58 58 57 57 59 53 51 54 64 63 60 59 57 55 49 54 55 53 52 53 53 56 59 57 55 55 58 57 53 51 49 49
43 44 45 47 47 48 51 54 56 56 57 58 58 58 57 58 53 49 51 62 63 59 60 60 58 57 56 56 57 57 56 56 57 54 59 58 58 58 59 57 53 51 49
37 38 39 42 44 47 48 51 53 55 56 57 57 57 57 57 51 48 51 59 59 58 57 58 57 57 52 49 57 57 57 58 53 52 51 49 49 49 55 55 50 49 48
39 39 40 41 42 44 48 51 51 52 53 52 54 57 55 57 50 49 48 60 59 57 59 57 51 54 47 46 57 58 57 57 57 57 57 54 53 55 51 58 55 51 50
40 39 40 41 43 44 48 50 52 52 51 51 51 54 56 56 55 48 47 58 60 59 59 59 57 47 45 44 48 59 58 58 57 58 57 57 58 59 56 57 58 54 52
40 40 41 42 41 40 43 46 48 49 49 49 49 48 47 51 48 45 44 48 53 56 58 59 58 48 46 44 46 48 47 50 56 56 55 54 54 55 56 57 58 58 56
40 41 42 41 40 42 42 43 42 45 44 43 42 44 44 45 48 43 42 43 44 50 52 48 49 47 45 46 44 45 44 54 55 55 54 53 53 53 58 60 59 58 57
40 40 41 41 40 40 40 40 39 40 41 41 40 40 41 42 44 45 45 45 43 45 45 47 46 47 45 46 49 49 53 55 55 55 53 53 53 55 56 59 58 56 54
38 38 39 40 40 40 40 40 40 41 39 38 39 39 40 40 40 42 43 44 45 42 45 46 46 46 45 48 48 49 51 53 54 55 54 53 53 54 54 58 58 56 53
37 36 38 39 39 40 40 40 39 39 39 38 38 38 39 39 39 39 39 39 39 41 44 41 42 43 43 44 47 46 47 49 51 53 53 53 51 52 52 56 58 56 53
37 38 37 38 39 38 39 39 39 39 39 39 38 38 38 38 39 39 38 39 38 39 43 42 43 43 44 44 44 45 44 46 50 49 51 51 51 51 52 51 55 56 55
37 38 37 38 37 37 37 38 39 39 38 40 39 39 38 38 38 38 38 38 42 42 42 42 42 44 44 45 46 46 46 47 48 48 48 50 51 50 51 51 50 55 55
36 36 37 37 37 38 38 38 38 38 38 39 40 39 39 37 37 37 37 40 41 42 43 42 42 44 46 46 46 46 47 47 48 48 48 48 49 50 50 50 49 46 50
35 36 35 35 35 36 36 36 37 37 39 39 40 40 41 40 41 40 40 40 40 41 42 42 42 43 45 47 48 46 46 47 47 49 49 49 49 49 49 49 49 53 55
34 34 33 34 34 35 35 35 36 36 37 37 37 37 36 40 41 41 40 40 40 41 42 42 41 41 43 43 44 44 47 46 46 49 50 50 51 50 49 49 49 53 55
33 33 34 34 34 34 35 35 35 36 36 36 37 38 34 39 40 41 41 42 41 41 42 42 41 41 41 42 42 43 44 47 48 48 49 49 51 50 49 49 50 55 55
34 33 34 34 34 33 34 35 35 35 35 36 37 37 38 39 39 39 40 41 43 42 42 42 42 42 43 43 43 43 42 45 48 49 51 50 49 50 50 51 52 54 52
34 34 34 35 35 36 37 37 38 35 36 36 37 37 38 39 39 39 40 41 42 43 44 44 43 43 43 44 44 43 44 46 47 50 49 51 51 49 53 52 54 54 52
34 34 34 34 34 34 35 36 37 39 38 37 37 38 39 39 39 40 41 41 42 43 44 45 44 43 43 43 43 43 42 36 44 44 51 52 52 52 53 53 53 53 52
34 34 34 34 33 34 34 34 35 36 37 38 40 41 40 40 40 41 42 42 43 43 43 44 45 45 44 44 44 41 37 35 42 38 49 52 53 53 53 52 52 53 50

GFSGL_sfc_dewp_240.txt.gz
Dewpoint
56 58 60 61 63 66 68 68 69 69 69 66 66 67 66 65 66 71 69 64 66 67 65 63 64 63 56 57 57 56 56 56 52 61 62 63 61 59 58 55 54 52 51
55 57 58 60 60 62 63 66 67 68 68 67 65 65 65 64 67 66 65 62 64 65 65 64 61 60 64 63 57 62 58 61 55 59 62 60 59 58 55 53 53 51 51
51 53 56 58 58 60 61 61 63 65 67 67 66 64 64 64 64 65 65 63 63 65 66 65 62 62 64 59 60 59 57 59 60 53 61 60 58 56 54 53 52 52 50
48 49 52 55 57 58 59 60 60 60 62 64 66 66 64 64 64 65 65 67 66 66 66 67 64 62 62 63 61 60 59 58 57 51 56 59 58 57 55 52 50 51 50
47 48 49 51 53 54 56 58 59 59 59 59 62 63 64 64 63 65 66 67 67 65 64 65 64 60 59 62 55 61 62 54 49 47 48 54 55 55 55 54 52 51 51
46 46 47 48 49 52 53 54 55 57 58 59 58 59 62 61 55 55 59 66 65 64 61 62 62 60 58 55 55 57 60 60 58 48 48 50 57 57 56 55 52 49 48
43 43 44 46 47 49 49 50 54 55 56 58 58 58 58 60 52 52 53 62 63 64 62 60 61 62 58 58 54 54 55 54 56 60 57 56 56 57 58 57 55 53 51
40 39 38 40 42 44 47 49 51 53 55 55 55 58 59 59 52 49 49 61 63 64 64 61 60 59 59 57 58 55 54 57 58 55 60 59 59 59 60 58 58 55 51
40 40 40 40 41 42 43 46 50 51 52 53 54 57 57 59 49 49 52 59 61 61 62 60 58 58 55 49 57 56 54 56 53 52 50 50 49 49 54 56 54 52 51
40 40 41 42 43 43 44 46 46 48 50 48 49 55 54 57 51 47 51 57 59 60 61 61 55 58 49 47 59 60 57 57 57 58 58 55 54 55 51 60 55 53 53
42 41 42 43 43 44 44 45 46 47 49 50 49 51 54 56 57 47 46 56 56 58 58 58 60 48 47 46 51 62 59 59 57 59 57 56 58 59 57 58 60 55 54
42 41 42 42 41 40 44 43 44 45 46 50 51 50 49 53 51 48 45 48 53 58 57 59 59 45 44 44 48 48 50 52 60 58 53 53 53 54 56 58 60 60 57
40 41 41 41 40 41 43 42 42 44 42 42 43 43 44 48 50 46 44 44 46 56 58 53 50 47 44 46 45 46 45 57 58 57 53 51 52 52 57 59 60 60 59
38 39 39 40 41 41 40 42 40 41 41 40 40 41 41 42 46 49 47 47 45 48 49 52 52 50 47 50 52 49 55 56 56 55 53 52 54 56 55 55 57 58 55
37 36 38 38 39 40 41 41 40 41 40 40 39 39 40 40 40 43 45 46 46 45 47 51 51 50 50 51 50 52 53 56 56 56 57 55 53 52 51 57 57 57 56
38 38 37 38 38 38 39 39 40 39 39 38 38 39 40 38 39 39 39 41 41 40 47 46 48 49 50 48 48 47 49 51 52 52 53 53 52 51 50 56 56 56 56
37 37 38 39 37 37 38 39 38 39 40 39 38 38 38 38 37 38 38 38 38 40 46 43 43 45 45 46 45 44 44 47 51 51 50 50 50 51 50 50 55 55 55
37 37 38 38 37 38 37 38 38 39 38 39 39 39 38 38 37 37 38 38 40 40 41 40 41 42 42 42 43 43 43 44 45 46 47 49 48 47 47 47 48 54 55
36 36 37 37 37 38 38 38 38 38 38 38 39 39 39 38 37 37 37 40 40 40 41 40 40 40 41 41 42 43 45 43 43 43 45 47 46 45 46 45 46 44 50
36 36 35 36 36 37 36 37 37 37 38 38 39 38 39 40 41 40 40 41 41 41 41 42 42 41 42 42 42 44 43 45 46 45 45 46 45 44 44 45 45 47 51
35 35 33 36 36 36 36 36 37 36 36 37 36 37 36 40 41 40 40 41 41 41 41 42 41 42 43 44 44 45 44 45 45 45 45 46 46 45 45 45 45 45 49
34 35 35 35 36 35 35 35 36 37 36 36 37 37 33 39 40 41 42 41 41 41 41 41 42 41 41 42 42 44 44 45 44 45 45 45 45 45 45 45 44 45 50
35 35 35 35 36 35 36 35 35 34 35 36 37 37 38 38 39 39 39 41 42 41 42 43 43 42 43 43 43 43 42 44 45 44 43 46 48 46 46 46 44 44 50
35 35 35 35 35 35 36 36 34 36 37 37 37 37 38 38 39 39 39 41 41 43 44 44 43 42 43 43 44 44 43 43 44 45 46 48 48 48 49 48 48 47 50
35 34 34 34 34 35 35 36 36 36 37 38 38 38 38 38 38 39 40 40 41 42 44 44 44 43 43 43 42 43 42 37 43 41 49 49 49 49 49 50 49 52 52
35 35 34 34 34 34 34 35 35 36 36 36 37 39 40 39 39 40 40 41 41 42 42 43 44 44 44 43 44 41 36 35 40 36 46 51 51 52 49 49 48 54 53

GFSGL_sfc_dewp_246.txt.gz
Dewpoint
53 55 58 59 61 63 63 63 63 64 66 66 66 68 63 60 67 68 68 69 68 68 66 67 66 66 66 63 63 63 62 61 62 62 62 60 59 56 55 54 53 50 50
51 54 56 58 58 61 61 62 62 62 63 64 64 66 66 68 68 67 67 66 67 66 66 65 65 63 67 66 64 63 63 64 62 61 61 60 58 56 54 54 52 50 50
49 48 54 57 58 59 58 60 60 60 60 61 62 63 63 65 66 65 68 66 66 66 66 63 65 65 65 64 66 66 63 64 63 63 62 60 57 55 54 53 52 52 50
46 48 52 55 56 57 58 58 58 58 57 58 60 60 62 62 64 65 66 62 65 66 65 65 64 64 65 62 61 59 59 60 62 62 62 60 57 56 54 52 51 51 50
45 47 51 53 53 53 55 56 57 57 56 56 56 58 60 61 62 62 63 64 63 61 66 66 65 65 62 61 62 60 59 58 58 61 58 61 58 55 54 54 52 51 51
47 47 48 49 49 51 53 53 55 55 56 55 55 55 57 56 54 55 58 62 63 63 60 62 63 60 59 58 57 57 59 58 57 59 57 57 59 56 56 54 53 51 49
46 45 45 46 48 50 50 50 52 55 56 55 56 55 54 57 51 50 52 61 62 63 64 63 62 62 60 59 56 56 56 55 57 57 57 60 59 61 59 56 54 52 53
44 44 43 44 46 48 48 50 54 55 55 54 52 52 53 54 50 49 49 59 60 61 62 63 61 59 59 59 59 57 56 57 56 56 59 63 61 63 61 60 57 54 52
42 43 43 44 44 46 47 48 49 48 52 52 51 51 51 51 48 48 50 58 58 59 59 61 63 62 55 51 58 57 57 55 53 55 55 51 51 53 59 58 55 53 52
41 43 44 45 45 46 47 48 48 48 48 46 48 49 49 51 48 46 48 56 56 56 59 61 55 59 52 50 57 57 55 55 56 55 55 54 54 53 53 60 57 54 54
42 42 42 43 44 44 45 45 45 46 47 48 47 48 50 49 48 46 45 54 55 55 55 58 60 50 50 48 50 58 56 56 55 56 57 59 60 60 57 59 61 57 55
40 39 40 41 40 40 42 42 43 43 44 45 46 46 45 48 46 45 45 45 51 56 55 57 58 49 46 48 49 51 49 52 58 55 55 55 57 58 59 59 60 61 61
40 40 39 38 39 39 39 39 38 40 41 41 40 40 41 42 44 44 43 44 45 51 57 55 47 46 45 46 46 48 49 58 58 57 57 55 55 57 58 61 61 59 57
39 39 39 39 38 38 37 37 37 38 39 39 39 41 41 42 43 45 45 47 47 48 51 54 52 50 49 52 52 48 55 58 58 58 58 57 57 57 61 60 58 56 54
38 37 37 36 37 37 37 37 37 38 38 38 39 41 41 41 44 39 41 42 43 51 53 54 53 53 53 54 55 53 55 57 57 59 59 59 60 59 58 60 58 55 53
37 35 36 36 36 36 36 35 37 37 37 37 37 38 37 38 39 39 38 37 37 40 51 50 50 50 51 54 53 54 56 55 56 58 59 60 59 59 58 59 57 55 52
37 37 36 36 36 36 35 35 35 35 37 37 37 37 37 37 37 38 38 37 37 40 46 48 48 49 49 50 51 53 53 54 56 57 57 57 59 59 55 58 58 55 53
37 36 37 36 36 36 36 36 36 36 35 35 36 37 37 37 37 37 37 37 39 39 39 42 46 48 49 51 51 51 52 52 53 53 55 57 57 58 57 56 56 55 54
37 36 37 36 36 36 36 35 36 36 35 34 35 36 36 37 37 37 37 39 38 38 38 40 43 47 48 50 50 51 51 51 52 51 53 54 55 58 57 57 56 50 51
36 36 36 36 35 35 35 35 35 36 36 36 35 35 36 37 37 39 39 39 39 38 38 39 42 43 45 47 48 51 52 50 50 51 52 53 53 54 56 56 57 55 54
35 35 34 35 36 36 35 35 35 35 35 36 36 36 33 37 38 40 40 39 39 39 39 39 40 41 44 43 47 50 52 51 50 50 51 53 53 52 53 52 53 56 55
35 34 35 35 35 35 36 35 35 35 35 35 36 37 34 36 37 39 39 40 41 41 41 41 40 40 40 40 42 43 47 49 50 49 49 50 54 52 50 51 50 50 55
36 36 35 35 35 34 35 36 36 35 35 36 36 36 37 37 38 38 38 39 40 41 43 43 42 41 41 42 43 43 43 43 45 47 46 48 49 53 50 49 48 47 52
37 36 35 35 35 34 34 34 35 34 35 36 36 36 37 37 38 38 39 39 40 41 42 41 43 42 43 42 42 43 43 45 46 46 48 46 46 44 48 47 48 46 47
38 37 36 35 34 34 34 34 34 34 34 35 35 36 37 37 38 39 39 39 39 40 41 43 42 42 42 42 42 41 40 35 43 39 48 47 47 48 47 47 49 47 48
37 37 36 35 34 33 33 33 33 33 33 34 34 35 36 36 37 38 39 40 40 41 40 41 43 43 43 42 42 39 36 35 40 36 45 48 46 47 48 48 47 48 51